User: anonymous   Login
Location: Unspecified
(0.0000°N, 0.0000°E)
Time: 03:22:13
(UTC+01:00)
Language:

Cosmos 1536 - Orbit

View from above orbital plane
View from above orbital plane
View from above satellite
View from above satellite

Ground track
Ground track

The orbit data is extracted from the following two-line orbital elements,

1 14699U 84013A   18052.55697036 +.00000276 +00000-0 +17273-4 0  9991
2 14699 082.5228 088.0796 0010978 288.0825 071.9205 15.05235719829443
Epoch (UTC): 21 February 2018 13:22:02
Eccentricity: 0.0010978
inclination: 82.5228°
perigee height: 543 km
apogee height: 558 km
right ascension of ascending node: 88.0796°
argument of perigee: 288.0825°
revolutions per day: 15.05235719
mean anomaly at epoch: 71.9205°
orbit number at epoch: 82944

The dashed part of the orbit path shows where the satellite is in the earth's shadow,  

DLR